Location: Kam�li
(14.6864°N, 3.1482°W)
Time: 16:59:13
(UTC+00:00)

CZ-2C R/B - Pass Details

Date: 29 October 2020
Orbit: 391 x 587 km, 35.0° (Epoch: 22 November)

Event Time Altitude Azimuth Distance (km) Brightness Sun altitude
Rises 17:59:03 0° 199° (SSW) 2,779 5.4 -4.1°
Reaches altitude 10° 18:02:27 10° 172° (S) 1,858 4.1 -4.9°
Maximum altitude 18:04:33 13° 143° (SE) 1,631 3.5 -5.4°
Drops below altitude 10° 18:06:37 10° 113° (ESE) 1,816 3.5 -5.9°
Enters shadow 18:08:04 - 98° (E) 2,138 3.7 -6.2°
